Home > Weather > Liberia > Past weeks

Flag for Costa Rica Past Weather in Liberia, Costa Rica — Yesterday and Last 2 Weeks

Now
90 °F

Partly sunny.


Feels Like: 95 °F
Forecast: 78 / 89 °F
Wind: 15 mph from East

Location: Liberia/Tomas Guard

Current Time: Jul 28, 2016 at 10:39:08 AM

Latest Report: Jul 28, 2016 at 10:00 AM


Visibility: N/A

Pressure: 29.83 "Hg

Humidity: 52%

Dew Point: 70 °F

Location of LiberiaLocation

Past Weather in Liberia — Graph

°F

Liberia Temperature Yesterday

Maximum temperature yesterday: 90 °F (at 12:00 PM)
Minimum temperature yesterday: 77 °F (at 6:00 AM)
Average temperature yesterday: 84 °F

High & Low Weather Summary for the Past Weeks

 TemperatureHumidityPressure
High91 °F (Jul 14, 12:00 PM)100% (Jul 23, 8:00 PM)29.95 "Hg (Jul 23, 8:00 PM)
Low70 °F (Jul 23, 6:00 AM)46% (Jul 16, 2:00 PM)29.74 "Hg (Jul 27, 3:00 PM)
Average82 °F72%29.87 "Hg
* Reported Jul 13 10:00 AM — Jul 28 9:00 AM, Liberia, Weather by CustomWeather, © 2016

Note: Actual official high and low records may vary slightly from our data, if they occured in-between our weather recording intervals... More about our weather records

Advertising

Liberia Weather History for the Previous 24 Hours

Scroll right to see more
 ConditionsComfort  
Time TempWeatherWind HumidityBarometerVisibility
9:00 AM
Thu, Jul 28
88 °FPassing clouds.16 mph59%29.83 "HgN/A
8:00 AM86 °FPartly sunny.16 mph59%29.82 "HgN/A
7:00 AM82 °FPartly sunny.8 mph70%29.81 "HgN/A
6:00 AM73 °FPartly sunny.2 mph89%29.80 "HgN/A
12:00 AM75 °FPassing clouds.8 mph83%29.81 "HgN/A
11:00 PM
Wed, Jul 27
77 °FPassing clouds.2 mph83%29.83 "HgN/A
10:00 PM79 °FPassing clouds.6 mph74%29.83 "HgN/A
9:00 PM79 °FPassing clouds.7 mph74%29.83 "HgN/A
8:00 PM81 °FPassing clouds.6 mph74%29.82 "HgN/A
7:00 PM82 °FPassing clouds.9 mph70%29.81 "HgN/A
6:00 PM82 °FPartly sunny.7 mph66%29.80 "HgN/A
5:00 PM84 °FPartly sunny.14 mph62%29.77 "HgN/A
4:00 PM86 °FPartly sunny.13 mph59%29.76 "HgN/A
3:00 PM90 °FPartly sunny.14 mph55%29.74 "HgN/A
2:00 PM90 °FPartly sunny.20 mph55%29.76 "HgN/A
1:00 PM90 °FScattered clouds.16 mph55%29.78 "HgN/A
12:00 PM90 °FScattered clouds.17 mph52%29.80 "HgN/A
11:00 AM88 °FScattered clouds.17 mph59%29.83 "HgN/A
10:00 AM88 °FScattered clouds.18 mph59%29.83 "HgN/A
Weather by CustomWeather, © 2016

See weather overviewHow to use our weather pages